TimePST,TemperatureF,Dew PointF,Humidity,Sea Level PressureIn,VisibilityMPH,Wind Direction,Wind SpeedMPH,Gust SpeedMPH,PrecipitationIn,Events,Conditions,WindDirDegrees,DateUTC
12:53 AM,61.0,53.1,75,29.97,3.0,Calm,Calm,-,N/A,,Haze,0,2012-12-09 08:53:00
1:53 AM,60.1,54.0,80,29.98,3.0,Calm,Calm,-,N/A,,Haze,0,2012-12-09 09:53:00
2:03 AM,60.8,53.6,77,29.98,2.5,Calm,Calm,-,N/A,,Haze,0,2012-12-09 10:03:00
2:22 AM,60.8,53.6,77,29.97,3.0,Variable,3.5,-,N/A,,Haze,0,2012-12-09 10:22:00
2:53 AM,60.1,54.0,80,29.98,3.0,Calm,Calm,-,N/A,,Haze,0,2012-12-09 10:53:00
3:00 AM,60.8,53.6,77,29.98,2.5,Calm,Calm,-,N/A,,Haze,0,2012-12-09 11:00:00
3:53 AM,60.1,53.1,78,29.97,3.0,Calm,Calm,-,N/A,,Haze,0,2012-12-09 11:53:00
4:53 AM,60.1,53.1,78,29.98,3.0,Calm,Calm,-,N/A,,Haze,0,2012-12-09 12:53:00
5:53 AM,60.1,52.0,75,30.01,3.0,Variable,3.5,-,N/A,,Haze,0,2012-12-09 13:53:00
6:53 AM,59.0,52.0,78,30.02,3.0,East,4.6,-,N/A,,Haze,90,2012-12-09 14:53:00
7:07 AM,59.0,51.8,77,30.02,2.0,East,4.6,-,N/A,,Haze,100,2012-12-09 15:07:00
7:53 AM,59.0,52.0,78,30.02,2.5,Calm,Calm,-,N/A,,Haze,0,2012-12-09 15:53:00
8:53 AM,59.0,52.0,78,30.04,2.5,Calm,Calm,-,N/A,,Haze,0,2012-12-09 16:53:00
9:53 AM,61.0,52.0,72,30.06,2.5,Calm,Calm,-,N/A,,Haze,0,2012-12-09 17:53:00
10:53 AM,63.0,52.0,67,30.04,2.5,Calm,Calm,-,N/A,,Haze,0,2012-12-09 18:53:00
11:53 AM,66.0,52.0,60,30.02,3.0,Calm,Calm,-,N/A,,Haze,0,2012-12-09 19:53:00
12:53 PM,68.0,51.1,55,29.99,3.0,Calm,Calm,-,N/A,,Haze,0,2012-12-09 20:53:00
2:53 PM,69.1,54.0,58,29.99,3.0,SSW,5.8,-,N/A,,Haze,210,2012-12-09 22:53:00
3:53 PM,64.9,54.0,68,30.01,4.0,SW,4.6,-,N/A,,Haze,220,2012-12-09 23:53:00
4:53 PM,63.0,53.1,70,30.03,3.0,Calm,Calm,-,N/A,,Haze,0,2012-12-10 00:53:00
5:53 PM,61.0,53.1,75,30.05,4.0,Calm,Calm,-,N/A,,Haze,0,2012-12-10 01:53:00
6:53 PM,60.1,53.1,78,30.06,4.0,Calm,Calm,-,N/A,,Haze,0,2012-12-10 02:53:00
7:53 PM,57.9,52.0,81,30.07,3.0,Calm,Calm,-,N/A,,Haze,0,2012-12-10 03:53:00
8:53 PM,57.0,51.1,81,30.09,3.0,Calm,Calm,-,N/A,,Haze,0,2012-12-10 04:53:00
9:09 PM,55.4,51.8,88,30.09,2.5,Calm,Calm,-,N/A,,Haze,0,2012-12-10 05:09:00
9:43 PM,55.4,50.0,82,30.10,3.0,Calm,Calm,-,N/A,,Haze,0,2012-12-10 05:43:00
9:53 PM,55.9,51.1,84,30.10,3.0,Calm,Calm,-,N/A,,Haze,0,2012-12-10 05:53:00
10:15 PM,55.4,50.0,82,30.11,2.5,Calm,Calm,-,N/A,,Haze,0,2012-12-10 06:15:00
10:37 PM,55.4,50.0,82,30.12,3.0,Calm,Calm,-,N/A,,Haze,0,2012-12-10 06:37:00
10:53 PM,54.0,50.0,86,30.12,2.5,East,3.5,-,N/A,,Clear,90,2012-12-10 06:53:00
11:53 PM,54.0,48.9,83,30.11,2.5,Calm,Calm,-,N/A,,Haze,0,2012-12-10 07:53:00